Preview of NWS' New Version of Forecast
This preview is not operational and should not be used for support decisions.

Regional Weather Roundup (RWR)

Issued by National Weather Service (NWS)

                            
000
ASUS43 KMKX 180700
RWRWI 

WISCONSIN REGIONAL WEATHER ROUNDUP
NATIONAL WEATHER SERVICE MILWAUKEE/SULLIVAN WI
200 AM CDT SUN AUG 18 2019

NOTE: "FAIR" INDICATES FEW OR NO CLOUDS BELOW 12,000 FEET WITH NO
SIGNIFICANT WEATHER AND/OR OBSTRUCTIONS TO VISIBILITY.

WIZ001-002-006>008-014>016-023>028-180800-
NORTHWEST WISCONSIN
  
CITY           SKY/WX    TMP DP  RH WIND       PRES   REMARKS
SUPERIOR ARPT  FAIR      58  58 100 CALM      29.70F                  
ASHLAND        FAIR      55  55 100 CALM      29.73F FOG              
HAYWARD        FAIR      64  60  87 S5        29.74F                  
SIREN          FAIR      66  60  79 SE5       29.71F                  
CUMBERLAND     CLOUDY    64  59  82 SE7       29.74F                  
RICE LAKE      CLOUDY    67  50  56 SE8       29.76S                  
CHETEK         CLOUDY    65  63  91 SE7       29.75F                  
LADYSMITH      FAIR      63  62  97 SE5       29.78F                  
EAU CLAIRE     CLOUDY    70  63  78 SE10      29.71F                  
MENOMONIE      LGT RAIN  63  60  91 E6        29.71F                  
NEW RICHMOND   DRIZZLE   67  61  81 SE9       29.68F                  
OSCEOLA        CLOUDY    67  65  90 E5        29.72F                  
$$
 
WIZ003>005-009-010-017-018-180800-
NORTH CENTRAL WISCONSIN
  
CITY           SKY/WX    TMP DP  RH WIND       PRES   REMARKS
MANITOWISH WTR FAIR      60  60 100 S6        29.80S                  
ARBOR VITAE    FAIR      64  61  89 S6        29.81S                  
WOODRUFF       FAIR      64  61  89 S6        29.81S                  
RHINELANDER    FAIR      63  59  87 S3        29.83F                  
EAGLE RIVER    FAIR      60  59  99 S3        29.81F                  
LAND O LAKES   FAIR      61  59  94 CALM      29.82F                  
PHILLIPS       FAIR      63  62  95 SE6       29.78F                  
TOMAHAWK       MOCLDY    58  57  97 CALM      29.82S                  
MEDFORD        MOCLDY    62  60  94 SE7       29.79F                  
MERRILL        MOCLDY    63  62  97 CALM      29.83R                  
$$
 
WIZ029-030-035-036-043>047-180800-
CENTRAL WISCONSIN
  
CITY           SKY/WX    TMP DP  RH WIND       PRES   REMARKS
WAUSAU         MOCLDY    63  62  97 CALM      29.80F                  
MOSINEE        MOCLDY    61  61 100 SE5       29.82F                  
MARSHFIELD     MOCLDY    65  62  90 S7        29.79F                  
STEVENS POINT  FAIR      63  62  97 SE3       29.81F                  
WAUPACA        FAIR      64  64  98 CALM      29.81F                  
WAUTOMA        MOCLDY    66  64  93 SE5       29.81F                  
WISC RAPIDS    MOCLDY    67  63  87 SE6       29.81S                  
CAMP DOUGLAS   MOCLDY    65  65 100 SW5       29.82R                  
$$
 
WIZ011>013-019>022-031-037>040-048>050-180800-
NORTHEAST WISCONSIN
  
CITY           SKY/WX    TMP DP  RH WIND       PRES   REMARKS
ANTIGO         FAIR      61  61  99 S6        29.83S                  
SHAWANO        FAIR      66  64  91 S5        29.80F                  
OCONTO         FAIR      58  58  98 SE3       29.82F                  
STURGEON BAY   FAIR      66  66 100 S7        29.84F FOG              
GREEN BAY      CLOUDY    68  67  96 S6        29.83F FOG              
MANITOWOC      CLOUDY    70  69  97 S8        29.84F                  
APPLETON       NOT AVBL                                               
CLINTONVILLE   FAIR      61  59  92 SE3       29.82F                  
OSHKOSH        FAIR      66  64  93 S5        29.81F FOG              
$$
 
WIZ032>034-041-042-053>061-180800-
SOUTHWEST WISCONSIN
  
CITY           SKY/WX    TMP DP  RH WIND       PRES   REMARKS
LA CROSSE      TSTM      73  67  81 SE9       29.73F                  
SPARTA         CLOUDY    67  64  87 CALM      29.80R                  
VIROQUA        MOCLDY    69  69 100 SE6       29.80F                  
BOSCOBEL       TSTM      71  68  90 SW7       29.80R                  
PRAIRIE DU CHI FAIR      71  67  87 NE3       29.78F                  
PLATTEVILLE    MOCLDY    69  69 100 S8        29.82F                  
$$

WIZ056-057-062-063-064-067-068-180800-
SOUTH CENTRAL WISCONSIN
  
CITY           SKY/WX    TMP DP  RH WIND       PRES   REMARKS
REEDSBURG      FAIR      67  67 100 E3        29.77F                  
BARABOO/DELLS  FAIR      68  66  93 S7        29.81F                  
LONE ROCK      FAIR      71  67  87 W9        29.82F                  
MINERAL POINT    N/A     70  70 100 E8        29.82F                  
MADISON        FAIR      72  67  84 S9        29.82F                  
MIDDLETON      FAIR      71  22  16 CALM      29.84F                  
WATERTOWN      FAIR      67  67 100 CALM      29.84F                  
MONROE         FAIR      68  66  93 SW8       29.86R                  
JANESVILLE     FAIR      68  68 100 CALM      29.84F                  
$$
 
WIZ051-052-058>065-066-070>072-180800-
SOUTHEAST WISCONSIN
  
CITY           SKY/WX    TMP DP  RH WIND       PRES   REMARKS
MILWAUKEE      FAIR      71  67  87 S5        29.84F FOG              
WAUKESHA       FAIR      68  64  88 S5        29.86F                  
MILWAUKEE/TIMM FAIR      70  64  83 S5        29.85F                  
RACINE         FAIR      70  68  93 S5        29.87F                  
KENOSHA        FAIR      69  68  96 S3        29.85F                  
FOND DU LAC    FAIR      69  65  86 S6        29.82F FOG              
SHEBOYGAN      CLOUDY    69  68  96 S6        29.84F FOG              
WEST BEND      FAIR      66  66 100 CALM      29.85F                  
JUNEAU         FAIR      67  66  99 CALM      29.85F                  
$$

LSZ147-162-180800-
LAKE SUPERIOR
  
STATION/POSITION TIME  TEMP    WIND        PRES    WAVE
                       AIR SEA DIR/SP/G            HT/PER
                 (UTC) (F)     (DEG/KT/KT) (MB)    (FT/S)
W MID LAKE BUOY  0550   67 64  180/  8/ 10 1006.6F   0
DEVILS ISLAND    0600   71     190/  7/  9 1006.6F
SAXON HARBOR     0640   67     180/  3/  5 1006.4S
$$
 
LMZ867-665-643>646-180800-
LAKE MICHIGAN
  
STATION/POSITION TIME  TEMP    WIND        PRES    WAVE
                       AIR SEA DIR/SP/G            HT/PER
                 (UTC) (F)     (DEG/KT/KT) (MB)    (FT/S)
S GREEN BAY BUOY 0630   74 71  170/ 12/ 14 1010.4F
N MID LAKE BUOY  0640   70 71  150/  6/  8 1011.2F
NORTHPORT PIER   0640   66     140/  2/  3 1010.5F
KEWAUNEE LAKESHO 0630   69     190/  6/  7 1010.1F
SHEBOYGAN LAKESH 0600   70     190/  9/ 10 1011.2S
PORT WASHINGTON  0640   70     160/  4/  5 1011.5F
S MID LAKE BUOY  0640   73 73  190/  6/  8 1011.9F
KENOSHA   LAKESH 0600   72     190/  4/  6 1011.5
$$

TC  - TEMPERATURE IN CELSIUS
VSB - VISIBILITY IN STATUTE MILES
WCI - WIND CHILL INDEX
HX  - HEAT INDEX